Time,TemperatureF,DewpointF,PressureIn,WindDirection,WindDirectionDegrees,WindSpeedMPH,WindSpeedGustMPH,Humidity,HourlyPrecipIn,Conditions,Clouds,dailyrainin,SoftwareType,DateUTC
2013-01-06 14:12:00,16.0,6.0,-100.00,SW,215,3.0,4.0,65,0.00,,,-99.99,,2013-01-06 21:12:00,
2013-01-06 14:43:00,21.0,9.0,-100.00,WSW,254,0.0,1.0,58,0.00,,,-99.99,,2013-01-06 21:43:00,
2013-01-06 14:53:00,20.0,8.0,-100.00,SE,141,1.0,2.0,60,0.00,,,-99.99,,2013-01-06 21:53:00,
2013-01-06 15:02:00,20.0,8.0,-100.00,SE,141,1.0,2.0,60,0.00,,,-99.99,,2013-01-06 22:02:00,
2013-01-06 15:12:00,19.0,8.0,-100.00,East,99,3.0,5.0,62,0.00,,,-99.99,,2013-01-06 22:12:00,
2013-01-06 15:22:00,19.0,8.0,-100.00,SE,136,3.0,3.0,61,0.00,,,-99.99,,2013-01-06 22:22:00,
2013-01-06 15:32:00,19.0,8.0,-100.00,SE,136,3.0,3.0,61,0.00,,,-99.99,,2013-01-06 22:32:00,
2013-01-06 15:42:00,19.0,9.0,-100.00,SE,131,4.0,4.0,62,0.00,,,-99.99,,2013-01-06 22:42:00,
2013-01-06 15:52:00,19.0,9.0,-100.00,SSE,160,6.0,8.0,63,0.00,,,-99.99,,2013-01-06 22:52:00,
2013-01-06 16:02:00,19.0,9.0,-100.00,SSE,160,6.0,8.0,63,0.00,,,-99.99,,2013-01-06 23:02:00,
2013-01-06 16:12:00,19.0,9.0,-100.00,SSE,160,6.0,8.0,63,0.00,,,-99.99,,2013-01-06 23:12:00,
2013-01-06 16:22:00,19.0,9.0,-100.00,SE,138,4.0,4.0,64,0.00,,,-99.99,,2013-01-06 23:22:00,
2013-01-06 16:32:00,19.0,9.0,-100.00,SE,138,4.0,4.0,64,0.00,,,-99.99,,2013-01-06 23:32:00,
2013-01-06 16:43:00,18.0,9.0,-100.00,South,182,4.0,4.0,65,0.00,,,-99.99,,2013-01-06 23:43:00,
2013-01-06 16:53:00,18.0,8.0,-100.00,East,86,3.0,4.0,64,0.00,,,-99.99,,2013-01-06 23:53:00,
2013-01-06 17:02:00,18.0,8.0,-100.00,East,86,3.0,4.0,64,0.00,,,-99.99,,2013-01-07 00:02:00,
2013-01-06 17:12:00,18.0,8.0,-100.00,East,86,3.0,4.0,64,0.00,,,-99.99,,2013-01-07 00:12:00,
2013-01-06 17:22:00,17.0,8.0,-100.00,SW,216,2.0,3.0,68,0.00,,,-99.99,,2013-01-07 00:22:00,
2013-01-06 17:32:00,17.0,8.0,-100.00,SW,216,2.0,3.0,68,0.00,,,-99.99,,2013-01-07 00:32:00,
2013-01-06 17:43:00,14.0,7.0,-100.00,West,267,2.0,3.0,73,0.00,,,-99.99,,2013-01-07 00:43:00,
2013-01-06 17:53:00,13.0,6.0,-100.00,NNW,330,2.0,4.0,73,0.00,,,-99.99,,2013-01-07 00:53:00,
2013-01-06 18:02:00,13.0,6.0,-100.00,NNW,330,2.0,4.0,73,0.00,,,-99.99,,2013-01-07 01:02:00,
2013-01-06 18:12:00,12.0,5.0,-100.00,NW,309,0.0,0.0,74,0.00,,,-99.99,,2013-01-07 01:12:00,
2013-01-06 18:22:00,12.0,5.0,-100.00,NW,309,0.0,0.0,74,0.00,,,-99.99,,2013-01-07 01:22:00,
2013-01-06 18:32:00,8.0,2.0,-100.00,SSE,147,4.0,5.0,77,0.00,,,-99.99,,2013-01-07 01:32:00,
2013-01-06 18:42:00,8.0,2.0,-100.00,SSE,147,4.0,5.0,77,0.00,,,-99.99,,2013-01-07 01:42:00,
2013-01-06 18:53:00,9.0,3.0,-100.00,SSE,151,2.0,4.0,78,0.00,,,-99.99,,2013-01-07 01:53:00,
2013-01-06 19:02:00,9.0,3.0,-100.00,SSE,151,2.0,4.0,78,0.00,,,-99.99,,2013-01-07 02:02:00,
2013-01-06 19:12:00,7.0,2.0,-100.00,SE,137,4.0,4.0,79,0.00,,,-99.99,,2013-01-07 02:12:00,
2013-01-06 19:22:00,6.0,1.0,-100.00,SSE,158,2.0,3.0,80,0.00,,,-99.99,,2013-01-07 02:22:00,
2013-01-06 19:32:00,6.0,1.0,-100.00,SSE,158,2.0,3.0,80,0.00,,,-99.99,,2013-01-07 02:32:00,
2013-01-06 19:42:00,6.0,1.0,-100.00,SSE,158,2.0,3.0,80,0.00,,,-99.99,,2013-01-07 02:42:00,
2013-01-06 19:53:00,5.0,1.0,-100.00,NNW,330,5.0,6.0,82,0.00,,,-99.99,,2013-01-07 02:53:00,
2013-01-06 20:02:00,5.0,1.0,-100.00,NNW,330,5.0,6.0,82,0.00,,,-99.99,,2013-01-07 03:02:00,
2013-01-06 20:12:00,5.0,1.0,-100.00,WNW,285,1.0,2.0,83,0.00,,,-99.99,,2013-01-07 03:12:00,
2013-01-06 20:22:00,5.0,1.0,-100.00,WNW,285,1.0,2.0,83,0.00,,,-99.99,,2013-01-07 03:22:00,
2013-01-06 20:30:00,3.0,-1.0,-100.00,SSE,152,2.0,2.0,83,0.00,,,-99.99,,2013-01-07 03:30:00,
2013-01-06 20:32:00,5.0,1.0,-100.00,WNW,285,1.0,2.0,83,0.00,,,-99.99,,2013-01-07 03:32:00,
2013-01-06 20:42:00,6.0,2.0,-100.00,ENE,76,1.0,2.0,83,0.00,,,-99.99,,2013-01-07 03:42:00,
2013-01-06 20:53:00,3.0,-1.0,-100.00,SSE,152,2.0,2.0,83,0.00,,,-99.99,,2013-01-07 03:53:00,
2013-01-06 21:02:00,3.0,-1.0,-100.00,SSE,152,2.0,2.0,83,0.00,,,-99.99,,2013-01-07 04:02:00,
2013-01-06 22:43:00,0.0,-4.0,-100.00,SSE,152,6.0,6.0,81,0.00,,,-99.99,,2013-01-07 05:43:00,
2013-01-06 22:53:00,-1.0,-6.0,-100.00,WSW,250,0.0,1.0,80,0.00,,,-99.99,,2013-01-07 05:53:00,
2013-01-06 23:02:00,-1.0,-6.0,-100.00,WSW,250,0.0,1.0,80,0.00,,,-99.99,,2013-01-07 06:02:00,
2013-01-06 23:12:00,2.0,-3.0,-100.00,North,359,0.0,1.0,83,0.00,,,-99.99,,2013-01-07 06:12:00,
2013-01-06 23:22:00,-1.0,-6.0,-100.00,NW,305,2.0,2.0,80,0.00,,,-99.99,,2013-01-07 06:22:00,
2013-01-06 23:32:00,-1.0,-6.0,-100.00,NW,305,2.0,2.0,80,0.00,,,-99.99,,2013-01-07 06:32:00,
2013-01-06 23:42:00,-1.0,-5.0,-100.00,NE,42,2.0,3.0,81,0.00,,,-99.99,,2013-01-07 06:42:00,
2013-01-06 23:52:00,-3.0,-8.0,-100.00,ESE,109,0.0,1.0,79,0.00,,,-99.99,,2013-01-07 06:52:00,